Notices

What's New in latest Release from April 7th, 2021:

- Updated Glossary, including Speed of Maximum Gust, and Total Hourly Precipitation

- Updated national and regional climate services offices contacts and prices information

- Addition of station inventory lists for 1981-2010, 1971-2000, and 1961-1990 Normals.

If you haven't already, please take our survey and provide feedback about our website: https://eccc.sondage-survey.ca/f/LanguageSelection.aspx?s=442ca660-fcf1-47c0-95a9-59707d6fd709

Hourly Data Report for July 12, 2020

TORONTO CITY
ONTARIO
Current Station Operator: ECCC - MSC

43°40'00.000" N
79°24'00.000" W
112.50 m
6158355
71508
XTO

Download Data

Hourly Data (July 2020)
Hourly Data Report for July 12, 2020
TIME
LST
Temp Definition
°C
Dew Point Definition
°C
Rel Hum Definition
%
Precip. Amount Definition
mm

Wind Dir Definition
10's deg

Wind Spd Definition
km/h
Visibility Definition
km
Stn Press Definition
kPa
Hmdx Definition


Wind Chill Definition


Weather Definition


00:00 21.7 15.3 67 0.0       99.13 26   LegendNANA
01:00 21.2 15.2 68 0.0       99.14 25   LegendNANA
02:00 20.7 15.3 71 0.0       99.12 25   LegendNANA
03:00 20.2 15.2 73 0.0       99.10     LegendNANA
04:00 19.8 15.0 73 0.0       99.14     LegendNANA
05:00 19.4 14.9 75 0.0       99.21     LegendNANA
06:00 19.6 15.1 75 0.0       99.28     LegendNANA
07:00 20.5 15.7 74 0.0       99.30 25   LegendNANA
08:00 22.4 16.2 68 0.0       99.31 27   LegendNANA
09:00 24.3 15.9 59 0.0       99.30 29   LegendNANA
10:00 24.4 15.0 56 0.0       99.31 28   LegendNANA
11:00 26.8 15.6 50 0.0       99.29 31   LegendNANA
12:00 26.4 14.6 48 0.4       99.26 30   LegendNANA
13:00 26.3 15.5 51 0.0       99.25 31   LegendNANA
14:00 24.9 16.5 59 0.3       99.27 30   LegendNANA
15:00 26.3 15.8 53 0.0       99.24 31   LegendNANA
16:00 27.0 13.8 44 0.0       99.23 30   LegendNANA
17:00 25.3 14.6 51 0.0       99.30 29   LegendNANA
18:00 24.2 13.8 52 0.2       99.37 27   LegendNANA
19:00 24.0 14.6 56 0.0       99.41 28   LegendNANA
20:00 23.0 14.2 58 0.0       99.44 26   LegendNANA
21:00 22.3 14.5 61 0.0       99.48 26   LegendNANA
22:00 21.6 14.3 63 0.0       99.53 25   LegendNANA
23:00 21.4 14.0 63 0.0       99.54 25   LegendNANA

Notes on Data Quality.

Legend

  • E = Estimated
  • M = Missing
  • NA = Not Available*
  • [empty] = Indicates an unobserved value
Date modified: